Albert Lea, MN

7:43 PM CST on February 09, 2016 (GMT -0600)
Albert Lea Municipal

Weather History for KAEL - March, 2013

Change the Weather History Date:

Tuesday, March 5, 2013

  Actual Average Record
Temperature  
Mean Temperature 27 °F -  
Max Temperature 30 °F 28 °F 46 °F (2009)
Min Temperature 24 °F 14 °F -9 °F (2015)
Degree Days  
Heating Degree Days 38    
Moisture  
Dew Point 26 °F    
Average Humidity 93    
Maximum Humidity 100    
Minimum Humidity 80    
Precipitation  
Precipitation 0.17 in - - ()
Sea Level Pressure  
Sea Level Pressure 30.03 in    
Wind  
Wind Speed 6 mph (North)    
Max Wind Speed 15 mph    
Max Gust Speed 21 mph    
Visibility 5 miles    
Events Snow    
Averages and records for this station are not official NWS values.
T = Trace of Precipitation, MM = Missing Value Source: NWS Daily Summary

Daily Weather History Graph

Daily Weather History Graph

Search for Another Location

Airport or City:

Trip Planner

Search our weather history database for the weather conditions in past years. The results will help you decide how hot, cold, wet, or windy it might be!

Date:

Astronomy

Mar. 05, 2013 Rise Set
Actual Time 6:42 AM CST 6:07 PM CST
Civil Twilight 6:14 AM CST 6:36 PM CST
Nautical Twilight 5:40 AM CST 7:09 PM CST
Astronomical Twilight 5:07 AM CST 7:43 PM CST
Moon 2:03 AM CST (3/5) 11:39 AM CST (3/5)
Length of Visible Light 12h 22m
Length of Day
11h 24m
Last Quarter, 40% of the Moon is Illuminated
Mar 5
Last Quarter
Mar 11
New
Mar 19
First Quarter
Mar 27
Full
Apr 2
Last Quarter

Hourly Weather History & Observations

Time (CST) Temp. Windchill Dew Point Humidity Pressure Visibility Wind Dir Wind Speed Gust Speed Precip Events Conditions
12:14 AM 26.6 °F 19.1 °F 26.6 °F 100% 29.94 in 4.0 mi ESE 6.9 mph - N/A Snow Light Snow
12:34 AM 26.6 °F 19.1 °F 26.6 °F 100% 29.94 in 3.0 mi ESE 6.9 mph - N/A Snow Light Snow
12:54 AM 26.6 °F 19.1 °F 26.6 °F 100% 29.94 in 1.5 mi ESE 6.9 mph - 0.01 in Snow Light Snow
1:14 AM 26.6 °F 21.2 °F 26.6 °F 100% 29.94 in 1.0 mi SE 4.6 mph - 0.01 in Snow Snow
1:34 AM 26.6 °F 22.6 °F 26.6 °F 100% 29.94 in 1.0 mi ESE 3.5 mph - 0.02 in Snow Light Snow
1:54 AM 26.6 °F 22.6 °F 26.6 °F 100% 29.93 in 1.2 mi East 3.5 mph - N/A Snow Light Snow
2:14 AM 26.6 °F - 26.6 °F 100% 29.93 in 0.8 mi Calm Calm - 0.01 in Snow Snow
2:34 AM 26.6 °F - 26.6 °F 100% 29.92 in 0.5 mi Calm Calm - 0.02 in Snow Heavy Snow
2:54 AM 26.6 °F - 26.6 °F 100% 29.92 in 1.0 mi Calm Calm - 0.01 in Snow Light Snow
3:14 AM 26.6 °F - 26.6 °F 100% 29.92 in 0.8 mi Calm Calm - 0.03 in Snow Snow
3:34 AM 26.6 °F - 26.6 °F 100% 29.92 in 1.0 mi Calm Calm - 0.04 in   Overcast
3:54 AM 26.6 °F - 26.6 °F 100% 29.92 in 1.2 mi Calm Calm - N/A Snow Light Snow
4:14 AM 26.6 °F - 26.6 °F 100% 29.92 in 1.0 mi Calm Calm - 0.01 in Snow Light Snow
4:34 AM 26.6 °F - 26.6 °F 100% 29.92 in 0.8 mi Calm Calm - 0.02 in Snow Snow
4:54 AM 26.6 °F 22.6 °F 26.6 °F 100% 29.92 in 1.0 mi ESE 3.5 mph - N/A Snow Snow
5:14 AM 26.6 °F 22.6 °F 26.6 °F 100% 29.92 in 1.2 mi ESE 3.5 mph - 0.01 in Snow Light Snow
5:34 AM 26.6 °F 22.6 °F 26.6 °F 100% 29.92 in 1.8 mi ESE 3.5 mph - 0.02 in Snow Light Snow
5:54 AM 26.6 °F - 26.6 °F 100% 29.92 in 1.2 mi Calm Calm - N/A Snow Light Snow
6:14 AM 26.6 °F 22.6 °F 26.6 °F 100% 29.93 in 1.0 mi SE 3.5 mph - N/A Snow Snow
7:14 AM 26.6 °F - 26.6 °F 100% 29.93 in 1.0 mi Calm Calm - 0.01 in Snow Light Snow
7:34 AM 26.6 °F - 26.6 °F 100% 29.93 in 0.8 mi Calm Calm - 0.01 in   Overcast
7:54 AM 26.6 °F - 26.6 °F 100% 29.93 in 1.0 mi Calm Calm - 0.01 in Snow Light Snow
8:14 AM 26.6 °F - 26.6 °F 100% 29.93 in 1.0 mi Calm Calm - 0.01 in Snow Light Snow
8:34 AM 26.6 °F - 26.6 °F 100% 29.93 in 1.2 mi Calm Calm - 0.01 in Snow Light Snow
8:54 AM 26.6 °F - 26.6 °F 100% 29.94 in 1.0 mi Calm Calm - 0.01 in Snow Light Snow
9:13 AM 28.4 °F - 26.6 °F 93% 29.94 in 1.0 mi Calm Calm - 0.01 in Snow Light Snow
9:34 AM 26.6 °F - 26.6 °F 100% 29.94 in 1.0 mi Calm Calm - 0.01 in Snow Light Snow
9:54 AM 28.4 °F 24.6 °F 26.6 °F 93% 29.95 in 0.8 mi North 3.5 mph - N/A Snow Light Snow
10:13 AM 28.4 °F 24.6 °F 26.6 °F 93% 29.95 in 1.2 mi NE 3.5 mph - 0.01 in Snow Light Snow
10:34 AM 28.4 °F 21.2 °F 26.6 °F 93% 29.95 in 1.0 mi NE 6.9 mph - 0.01 in Snow Light Snow
10:54 AM 28.4 °F 19.7 °F 26.6 °F 93% 29.95 in 1.2 mi NNE 9.2 mph - N/A Snow Light Snow
11:13 AM 28.4 °F 19.7 °F 26.6 °F 93% 29.96 in 1.5 mi NE 9.2 mph - N/A Snow Light Snow
11:34 AM 28.4 °F 19.7 °F 26.6 °F 93% 29.96 in 2.0 mi NNE 9.2 mph - N/A   Mostly Cloudy
11:54 AM 28.4 °F 19.1 °F 26.6 °F 93% 29.97 in 4.0 mi NNE 10.4 mph - N/A   Mostly Cloudy
12:13 PM 28.4 °F 18.5 °F 26.6 °F 93% 29.98 in 5.0 mi North 11.5 mph - N/A   Mostly Cloudy
12:34 PM 30.2 °F 20.8 °F 26.6 °F 86% 29.98 in 7.0 mi North 11.5 mph - N/A   Scattered Clouds
12:54 PM 30.2 °F 20.8 °F 26.6 °F 86% 29.99 in 7.0 mi North 11.5 mph - N/A   Mostly Cloudy
1:14 PM 30.2 °F 21.3 °F 26.6 °F 86% 30.00 in 7.0 mi North 10.4 mph - N/A   Mostly Cloudy
1:34 PM 28.4 °F 18.5 °F 26.6 °F 93% 30.00 in 7.0 mi North 11.5 mph 18.4 mph N/A   Mostly Cloudy
1:54 PM 28.4 °F 17.5 °F 24.8 °F 86% 30.00 in 10.0 mi North 13.8 mph - N/A   Overcast
2:14 PM 28.4 °F 17.5 °F 24.8 °F 86% 30.01 in 10.0 mi North 13.8 mph - N/A   Overcast
2:34 PM 28.4 °F 17.0 °F 24.8 °F 86% 30.02 in 10.0 mi North 15.0 mph - N/A   Overcast
2:54 PM 30.2 °F 20.8 °F 24.8 °F 80% 30.03 in 10.0 mi North 11.5 mph 18.4 mph N/A   Overcast
3:14 PM 28.4 °F 18.5 °F 24.8 °F 86% 30.05 in 10.0 mi NNW 11.5 mph 19.6 mph N/A   Overcast
3:34 PM 28.4 °F 17.0 °F 24.8 °F 86% 30.05 in 10.0 mi NNW 15.0 mph - N/A   Overcast
3:54 PM 28.4 °F 18.5 °F 24.8 °F 86% 30.06 in 10.0 mi North 11.5 mph - N/A   Overcast
4:14 PM 28.4 °F 18.0 °F 24.8 °F 86% 30.07 in 10.0 mi NNW 12.7 mph 19.6 mph N/A   Overcast
4:34 PM 28.4 °F 18.5 °F 24.8 °F 86% 30.09 in 10.0 mi NNW 11.5 mph - N/A   Overcast
4:54 PM 28.4 °F 18.0 °F 24.8 °F 86% 30.09 in 10.0 mi NNW 12.7 mph - N/A   Overcast
5:14 PM 28.4 °F 19.1 °F 24.8 °F 86% 30.11 in 7.0 mi NNW 10.4 mph - N/A   Overcast
5:34 PM 28.4 °F 19.1 °F 24.8 °F 86% 30.11 in 5.0 mi NNW 10.4 mph 20.7 mph N/A Snow Light Snow
5:54 PM 28.4 °F 18.5 °F 24.8 °F 86% 30.12 in 4.0 mi NNW 11.5 mph 16.1 mph N/A Snow Light Snow
6:14 PM 26.6 °F 16.2 °F 24.8 °F 93% 30.13 in 7.0 mi NNW 11.5 mph 16.1 mph N/A Snow Light Snow
6:34 PM 26.6 °F 16.8 °F 24.8 °F 93% 30.15 in 7.0 mi NNW 10.4 mph 16.1 mph N/A Snow Light Snow
6:54 PM 26.6 °F 18.2 °F 24.8 °F 93% 30.16 in 5.0 mi NW 8.1 mph - N/A Snow Light Snow
7:14 PM 26.6 °F 16.8 °F 24.8 °F 93% 30.16 in 5.0 mi NNW 10.4 mph - N/A Snow Light Snow
7:34 PM 26.6 °F 16.8 °F 26.6 °F 100% 30.16 in 5.0 mi NNW 10.4 mph - N/A Snow Light Snow
7:53 PM 26.6 °F 16.8 °F 26.6 °F 100% 30.17 in 7.0 mi NNW 10.4 mph 17.3 mph N/A Snow Light Snow
8:14 PM 26.6 °F 17.5 °F 24.8 °F 93% 30.18 in 10.0 mi NNW 9.2 mph - N/A   Mostly Cloudy
8:33 PM 24.8 °F 16.1 °F 23.0 °F 93% 30.18 in 10.0 mi NNW 8.1 mph - N/A   Scattered Clouds
8:54 PM 26.6 °F 18.2 °F 24.8 °F 93% 30.19 in 10.0 mi NNW 8.1 mph - N/A   Mostly Cloudy
9:14 PM 26.6 °F 16.8 °F 23.0 °F 86% 30.20 in 10.0 mi NNW 10.4 mph - N/A   Overcast
9:34 PM 26.6 °F 17.5 °F 23.0 °F 86% 30.21 in 10.0 mi NW 9.2 mph - N/A   Overcast
9:54 PM 26.6 °F 18.2 °F 21.2 °F 80% 30.22 in 10.0 mi NNW 8.1 mph - N/A   Overcast
10:14 PM 26.6 °F 18.2 °F 21.2 °F 80% 30.22 in 10.0 mi NNW 8.1 mph - N/A   Overcast
10:34 PM 26.6 °F 18.2 °F 23.0 °F 86% 30.21 in 10.0 mi NNW 8.1 mph - N/A   Overcast
10:54 PM 26.6 °F 18.2 °F 23.0 °F 86% 30.22 in 10.0 mi NNW 8.1 mph - N/A   Overcast
11:14 PM 24.8 °F 15.3 °F 23.0 °F 93% 30.23 in 10.0 mi NNW 9.2 mph - N/A   Overcast
11:34 PM 24.8 °F 16.9 °F 23.0 °F 93% 30.25 in 10.0 mi NW 6.9 mph - N/A   Overcast
11:54 PM 24.8 °F 16.1 °F 21.2 °F 86% 30.25 in 10.0 mi NW 8.1 mph - N/A   Mostly Cloudy